Time,TemperatureF,DewpointF,PressureIn,WindDirection,WindDirectionDegrees,WindSpeedMPH,WindSpeedGustMPH,Humidity,HourlyPrecipIn,Conditions,Clouds,dailyrainin,SolarRadiationWatts/m^2,SoftwareType,DateUTC
2013-01-11 00:23:00,25.0,16.0,-100.00,WNW,290,2.0,5.0,69,0.00,,,0.00,0.000000,,2013-01-11 05:23:00,
2013-01-11 00:33:00,25.0,16.0,-100.00,WNW,290,2.0,5.0,69,0.00,,,0.00,0.000000,,2013-01-11 05:33:00,
2013-01-11 00:43:00,25.0,16.0,-100.00,WNW,290,2.0,5.0,69,0.00,,,0.00,0.000000,,2013-01-11 05:43:00,
2013-01-11 00:52:00,25.0,16.0,-100.00,WNW,290,2.0,5.0,69,0.00,,,0.00,0.000000,,2013-01-11 05:52:00,
2013-01-11 01:22:00,25.0,16.0,-100.00,West,274,3.0,6.0,69,0.00,,,0.00,0.000000,,2013-01-11 06:22:00,
2013-01-11 01:32:00,25.0,16.0,-100.00,West,274,3.0,6.0,69,0.00,,,0.00,0.000000,,2013-01-11 06:32:00,
2013-01-11 01:42:00,25.0,16.0,-100.00,West,274,3.0,6.0,69,0.00,,,0.00,0.000000,,2013-01-11 06:42:00,
2013-01-11 01:52:00,25.0,16.0,-100.00,West,274,3.0,6.0,69,0.00,,,0.00,0.000000,,2013-01-11 06:52:00,
2013-01-11 02:22:00,25.0,16.0,-100.00,West,281,4.0,8.0,68,0.00,,,0.00,0.000000,,2013-01-11 07:22:00,
2013-01-11 02:32:00,25.0,16.0,-100.00,West,281,4.0,8.0,68,0.00,,,0.00,0.000000,,2013-01-11 07:32:00,
2013-01-11 02:42:00,25.0,16.0,-100.00,West,281,4.0,8.0,68,0.00,,,0.00,0.000000,,2013-01-11 07:42:00,
2013-01-11 02:52:00,25.0,16.0,-100.00,West,281,4.0,8.0,68,0.00,,,0.00,0.000000,,2013-01-11 07:52:00,
2013-01-11 03:22:00,23.0,15.0,-100.00,WNW,283,2.0,8.0,72,0.00,,,0.00,0.000000,,2013-01-11 08:22:00,
2013-01-11 03:32:00,23.0,15.0,-100.00,WNW,283,2.0,8.0,72,0.00,,,0.00,0.000000,,2013-01-11 08:32:00,
2013-01-11 03:42:00,23.0,15.0,-100.00,WNW,283,2.0,8.0,72,0.00,,,0.00,0.000000,,2013-01-11 08:42:00,
2013-01-11 03:52:00,23.0,15.0,-100.00,WNW,283,2.0,8.0,72,0.00,,,0.00,0.000000,,2013-01-11 08:52:00,
2013-01-11 04:23:00,23.0,14.0,-100.00,NE,38,3.0,8.0,69,0.00,,,0.00,0.000000,,2013-01-11 09:23:00,
2013-01-11 04:32:00,23.0,14.0,-100.00,NE,38,3.0,8.0,69,0.00,,,0.00,0.000000,,2013-01-11 09:32:00,
2013-01-11 04:42:00,23.0,14.0,-100.00,NE,38,3.0,8.0,69,0.00,,,0.00,0.000000,,2013-01-11 09:42:00,
2013-01-11 04:52:00,23.0,14.0,-100.00,NE,38,3.0,8.0,69,0.00,,,0.00,0.000000,,2013-01-11 09:52:00,
2013-01-11 05:22:00,23.0,13.0,-100.00,North,8,3.0,10.0,66,0.00,,,0.00,0.000000,,2013-01-11 10:22:00,
2013-01-11 05:32:00,23.0,13.0,-100.00,North,8,3.0,10.0,66,0.00,,,0.00,0.000000,,2013-01-11 10:32:00,
2013-01-11 05:42:00,23.0,13.0,-100.00,North,8,3.0,10.0,66,0.00,,,0.00,0.000000,,2013-01-11 10:42:00,
2013-01-11 05:52:00,23.0,13.0,-100.00,North,8,3.0,10.0,66,0.00,,,0.00,0.000000,,2013-01-11 10:52:00,
2013-01-11 06:22:00,22.0,13.0,-100.00,WNW,284,3.0,12.0,68,0.00,,,-99.99,0.000000,,2013-01-11 11:22:00,
2013-01-11 06:33:00,22.0,13.0,-100.00,WNW,284,3.0,12.0,68,0.00,,,-99.99,0.000000,,2013-01-11 11:33:00,
2013-01-11 06:43:00,22.0,13.0,-100.00,WNW,284,3.0,12.0,68,0.00,,,-99.99,0.000000,,2013-01-11 11:43:00,
2013-01-11 06:53:00,22.0,13.0,-100.00,WNW,284,3.0,12.0,68,0.00,,,-99.99,0.000000,,2013-01-11 11:53:00,
2013-01-11 07:23:00,22.0,13.0,-100.00,NNE,30,4.0,11.0,69,0.00,,,-99.99,0.000000,,2013-01-11 12:23:00,
2013-01-11 07:33:00,22.0,13.0,-100.00,NNE,30,4.0,11.0,69,0.00,,,-99.99,0.000000,,2013-01-11 12:33:00,
2013-01-11 07:43:00,22.0,13.0,-100.00,NNE,30,4.0,11.0,69,0.00,,,-99.99,0.000000,,2013-01-11 12:43:00,
2013-01-11 07:52:00,22.0,13.0,-100.00,NNE,30,4.0,11.0,69,0.00,,,-99.99,0.000000,,2013-01-11 12:52:00,
2013-01-11 08:22:00,24.0,14.0,-100.00,North,349,2.0,6.0,65,0.00,,,-99.99,35.000000,,2013-01-11 13:22:00,
2013-01-11 08:33:00,24.0,14.0,-100.00,North,349,2.0,6.0,65,0.00,,,-99.99,35.000000,,2013-01-11 13:33:00,
2013-01-11 08:43:00,24.0,14.0,-100.00,North,349,2.0,6.0,65,0.00,,,-99.99,35.000000,,2013-01-11 13:43:00,
2013-01-11 08:52:00,24.0,14.0,-100.00,North,349,2.0,6.0,65,0.00,,,-99.99,35.000000,,2013-01-11 13:52:00,
2013-01-11 09:23:00,28.0,14.0,-100.00,North,1,4.0,9.0,56,0.00,,,0.00,209.000000,,2013-01-11 14:23:00,
2013-01-11 09:33:00,28.0,14.0,-100.00,North,1,4.0,9.0,56,0.00,,,0.00,209.000000,,2013-01-11 14:33:00,
2013-01-11 09:43:00,28.0,14.0,-100.00,North,1,4.0,9.0,56,0.00,,,0.00,209.000000,,2013-01-11 14:43:00,
2013-01-11 09:53:00,28.0,14.0,-100.00,North,1,4.0,9.0,56,0.00,,,0.00,209.000000,,2013-01-11 14:53:00,
2013-01-11 10:23:00,30.0,15.0,-100.00,NNE,13,4.0,9.0,53,0.00,,,0.00,344.000000,,2013-01-11 15:23:00,
2013-01-11 10:33:00,30.0,15.0,-100.00,NNE,13,4.0,9.0,53,0.00,,,0.00,344.000000,,2013-01-11 15:33:00,
2013-01-11 10:43:00,30.0,15.0,-100.00,NNE,13,4.0,9.0,53,0.00,,,0.00,344.000000,,2013-01-11 15:43:00,
2013-01-11 10:53:00,30.0,15.0,-100.00,NNE,13,4.0,9.0,53,0.00,,,0.00,344.000000,,2013-01-11 15:53:00,
2013-01-11 11:23:00,32.0,14.0,-100.00,NNE,27,5.0,10.0,47,0.00,,,0.00,446.000000,,2013-01-11 16:23:00,
2013-01-11 11:33:00,32.0,14.0,-100.00,NNE,27,5.0,10.0,47,0.00,,,0.00,446.000000,,2013-01-11 16:33:00,
2013-01-11 11:43:00,32.0,14.0,-100.00,NNE,27,5.0,10.0,47,0.00,,,0.00,446.000000,,2013-01-11 16:43:00,
2013-01-11 11:53:00,32.0,14.0,-100.00,NNE,27,5.0,10.0,47,0.00,,,0.00,446.000000,,2013-01-11 16:53:00,
2013-01-11 12:22:00,34.0,14.0,-100.00,ENE,61,7.0,10.0,43,0.00,,,0.00,493.000000,,2013-01-11 17:22:00,
2013-01-11 12:33:00,34.0,14.0,-100.00,ENE,61,7.0,10.0,43,0.00,,,0.00,493.000000,,2013-01-11 17:33:00,
2013-01-11 12:43:00,34.0,14.0,-100.00,ENE,61,7.0,10.0,43,0.00,,,0.00,493.000000,,2013-01-11 17:43:00,
2013-01-11 12:53:00,34.0,14.0,-100.00,ENE,61,7.0,10.0,43,0.00,,,0.00,493.000000,,2013-01-11 17:53:00,
2013-01-11 13:23:00,35.0,14.0,-100.00,ENE,66,5.0,13.0,41,0.00,,,0.00,468.000000,,2013-01-11 18:23:00,
2013-01-11 13:33:00,35.0,14.0,-100.00,ENE,66,5.0,13.0,41,0.00,,,0.00,468.000000,,2013-01-11 18:33:00,
2013-01-11 13:43:00,35.0,14.0,-100.00,ENE,66,5.0,13.0,41,0.00,,,0.00,468.000000,,2013-01-11 18:43:00,
2013-01-11 13:53:00,35.0,14.0,-100.00,ENE,66,5.0,13.0,41,0.00,,,0.00,468.000000,,2013-01-11 18:53:00,
2013-01-11 14:13:00,37.0,14.0,-100.00,NNW,328,3.0,8.0,38,0.00,,,0.00,348.000000,,2013-01-11 19:13:00,
2013-01-11 14:23:00,37.0,14.0,-100.00,NNW,328,3.0,8.0,38,0.00,,,0.00,348.000000,,2013-01-11 19:23:00,
2013-01-11 14:33:00,37.0,14.0,-100.00,NNW,328,3.0,8.0,38,0.00,,,0.00,348.000000,,2013-01-11 19:33:00,
2013-01-11 14:43:00,37.0,14.0,-100.00,NNW,328,3.0,8.0,38,0.00,,,0.00,348.000000,,2013-01-11 19:43:00,
2013-01-11 14:53:00,37.0,14.0,-100.00,NNW,328,3.0,8.0,38,0.00,,,0.00,348.000000,,2013-01-11 19:53:00,
2013-01-11 15:23:00,33.0,15.0,-100.00,West,275,3.0,7.0,47,0.00,,,0.00,126.000000,,2013-01-11 20:23:00,
2013-01-11 15:33:00,33.0,15.0,-100.00,West,275,3.0,7.0,47,0.00,,,0.00,126.000000,,2013-01-11 20:33:00,
2013-01-11 15:43:00,33.0,15.0,-100.00,West,275,3.0,7.0,47,0.00,,,0.00,126.000000,,2013-01-11 20:43:00,
2013-01-11 15:52:00,33.0,15.0,-100.00,West,275,3.0,7.0,47,0.00,,,0.00,126.000000,,2013-01-11 20:52:00,
2013-01-11 16:23:00,32.0,14.0,-100.00,NNW,341,0.0,5.0,47,0.00,,,0.00,41.000000,,2013-01-11 21:23:00,
2013-01-11 16:33:00,32.0,14.0,-100.00,NNW,341,0.0,5.0,47,0.00,,,0.00,41.000000,,2013-01-11 21:33:00,
2013-01-11 16:43:00,32.0,14.0,-100.00,NNW,341,0.0,5.0,47,0.00,,,0.00,41.000000,,2013-01-11 21:43:00,
2013-01-11 16:52:00,32.0,14.0,-100.00,NNW,341,0.0,5.0,47,0.00,,,0.00,41.000000,,2013-01-11 21:52:00,
2013-01-11 17:23:00,31.0,14.0,-100.00,WNW,289,0.0,3.0,48,0.00,,,0.00,2.000000,,2013-01-11 22:23:00,
2013-01-11 17:33:00,31.0,14.0,-100.00,WNW,289,0.0,3.0,48,0.00,,,0.00,2.000000,,2013-01-11 22:33:00,
2013-01-11 17:42:00,31.0,14.0,-100.00,WNW,289,0.0,3.0,48,0.00,,,0.00,2.000000,,2013-01-11 22:42:00,
2013-01-11 17:52:00,31.0,14.0,-100.00,WNW,289,0.0,3.0,48,0.00,,,0.00,2.000000,,2013-01-11 22:52:00,
2013-01-11 18:23:00,31.0,13.0,-100.00,NE,36,1.0,5.0,47,0.00,,,0.00,0.000000,,2013-01-11 23:23:00,
2013-01-11 18:33:00,31.0,13.0,-100.00,NE,36,1.0,5.0,47,0.00,,,0.00,0.000000,,2013-01-11 23:33:00,
2013-01-11 18:43:00,31.0,13.0,-100.00,NE,36,1.0,5.0,47,0.00,,,0.00,0.000000,,2013-01-11 23:43:00,
2013-01-11 18:53:00,31.0,13.0,-100.00,NE,36,1.0,5.0,47,0.00,,,0.00,0.000000,,2013-01-11 23:53:00,
2013-01-11 19:23:00,32.0,15.0,-100.00,ENE,61,6.0,9.0,50,0.00,,,0.00,0.000000,,2013-01-12 00:23:00,
2013-01-11 19:33:00,32.0,15.0,-100.00,ENE,61,6.0,9.0,50,0.00,,,0.00,0.000000,,2013-01-12 00:33:00,
2013-01-11 19:43:00,32.0,15.0,-100.00,ENE,61,6.0,9.0,50,0.00,,,0.00,0.000000,,2013-01-12 00:43:00,
2013-01-11 19:52:00,32.0,15.0,-100.00,ENE,61,6.0,9.0,50,0.00,,,0.00,0.000000,,2013-01-12 00:52:00,
2013-01-11 20:22:00,31.0,15.0,-100.00,NW,321,1.0,8.0,52,0.00,,,0.00,0.000000,,2013-01-12 01:22:00,
2013-01-11 20:33:00,31.0,15.0,-100.00,NW,321,1.0,8.0,52,0.00,,,0.00,0.000000,,2013-01-12 01:33:00,
2013-01-11 20:43:00,31.0,15.0,-100.00,NW,321,1.0,8.0,52,0.00,,,0.00,0.000000,,2013-01-12 01:43:00,
2013-01-11 20:52:00,31.0,15.0,-100.00,NW,321,1.0,8.0,52,0.00,,,0.00,0.000000,,2013-01-12 01:52:00,
2013-01-11 21:22:00,31.0,16.0,-100.00,NW,306,0.0,5.0,54,0.00,,,0.00,0.000000,,2013-01-12 02:22:00,
2013-01-11 21:33:00,31.0,16.0,-100.00,NW,306,0.0,5.0,54,0.00,,,0.00,0.000000,,2013-01-12 02:33:00,
2013-01-11 21:43:00,31.0,16.0,-100.00,NW,306,0.0,5.0,54,0.00,,,0.00,0.000000,,2013-01-12 02:43:00,
2013-01-11 21:53:00,31.0,16.0,-100.00,NW,306,0.0,5.0,54,0.00,,,0.00,0.000000,,2013-01-12 02:53:00,
2013-01-11 22:22:00,31.0,18.0,-100.00,ENE,66,8.0,10.0,59,0.00,,,0.00,0.000000,,2013-01-12 03:22:00,
2013-01-11 22:33:00,31.0,18.0,-100.00,ENE,66,8.0,10.0,59,0.00,,,0.00,0.000000,,2013-01-12 03:33:00,
2013-01-11 22:43:00,31.0,18.0,-100.00,ENE,66,8.0,10.0,59,0.00,,,0.00,0.000000,,2013-01-12 03:43:00,
2013-01-11 22:52:00,31.0,18.0,-100.00,ENE,66,8.0,10.0,59,0.00,,,0.00,0.000000,,2013-01-12 03:52:00,
2013-01-11 23:12:00,31.0,22.0,-100.00,WNW,285,2.0,10.0,70,0.00,,,0.00,0.000000,,2013-01-12 04:12:00,
2013-01-11 23:22:00,31.0,22.0,-100.00,WNW,285,2.0,10.0,70,0.00,,,0.00,0.000000,,2013-01-12 04:22:00,
2013-01-11 23:32:00,31.0,22.0,-100.00,WNW,285,2.0,10.0,70,0.00,,,0.00,0.000000,,2013-01-12 04:32:00,
2013-01-11 23:42:00,31.0,22.0,-100.00,WNW,285,2.0,10.0,70,0.00,,,0.00,0.000000,,2013-01-12 04:42:00,
2013-01-11 23:52:00,31.0,22.0,-100.00,WNW,285,2.0,10.0,70,0.00,,,0.00,0.000000,,2013-01-12 04:52:00,